Stations météo

Publicité
Poitiers, France (7335): Température de l'air & dewpoint: 20.11.2020 00:00:00 - 26.11.2020 00:00:00 (CET)Poitiers, France (7335): Température de l'air 5cm: 20.11.2020 00:00:00 - 26.11.2020 00:00:00 (CET)Poitiers, France (7335): Température de l'air -20cm & Température de l'air -100cm: 20.11.2020 00:00:00 - 26.11.2020 00:00:00 (CET)Poitiers, France (7335): Vitesse du vent & gusts: 20.11.2020 00:00:00 - 26.11.2020 00:00:00 (CET)Poitiers, France (7335): Direction du vent: 20.11.2020 00:00:00 - 26.11.2020 00:00:00 (CET)Poitiers, France (7335): reduced air pressure: 20.11.2020 00:00:00 - 26.11.2020 00:00:00 (CET)Poitiers, France (7335): visibility: 20.11.2020 00:00:00 - 26.11.2020 00:00:00 (CET)Poitiers, France (7335): Ensoleillement: 20.11.2020 00:00:00 - 26.11.2020 00:00:00 (CET)Poitiers, France (7335): Quantités de précipitations: 20.11.2020 00:00:00 - 26.11.2020 00:00:00 (CET)
Date & Time tt [°C] td [°C] tt 5cm [°C] tt -20cm [°C] tt -100cm [°C] ff [km/h] ff [knt] fx [km/h] fx [knt] dd ppp [hPa] vv [km] sd [min] rr [mm]
26.11.2020 00:00:00 - - - - - - - - - - - - - -
25.11.2020 23:00:00 7,4 5,9 3,0 9,5 12,4 5 3 10 5 E 1017,2 14 0 0,0
25.11.2020 22:00:00 7,9 5,7 3,8 9,5 12,4 4 2 15 8 E 1017,1 14 0 0,0
25.11.2020 21:00:00 9,4 6,8 5,3 9,5 12,4 11 6 18 10 E 1016,7 17 0 0,0
25.11.2020 20:00:00 9,8 7,0 5,3 9,5 12,4 6 3 13 7 ENE 1016,3 18 0 0,0
25.11.2020 19:00:00 11,0 6,7 7,4 9,5 12,4 8 5 11 6 ENE 1015,9 15 0 0,0
25.11.2020 18:00:00 12,3 7,0 8,6 9,4 12,4 5 3 7 4 ENE 1015,5 20 0 0,0
25.11.2020 17:00:00 14,3 7,1 11,3 9,3 12,4 4 2 14 8 ESE 1015,2 54 49 0,0
25.11.2020 16:00:00 15,6 7,4 18,1 9,2 12,4 7 4 16 9 S 1014,7 20 60 0,0
25.11.2020 15:00:00 15,4 7,4 16,9 9,1 12,5 11 6 24 13 SSW 1014,9 20 60 0,0
25.11.2020 14:00:00 15,0 7,8 18,1 9,0 12,5 18 10 34 19 SSW 1015,1 33 60 0,0
25.11.2020 13:00:00 14,4 7,9 17,3 9,0 12,5 21 11 32 18 S 1015,2 20 60 0,0
25.11.2020 12:00:00 13,1 8,0 14,8 9,0 12,5 20 11 34 18 S 1016,0 33 60 0,0
25.11.2020 11:00:00 11,4 7,1 10,9 9,0 12,5 14 8 24 13 S 1016,2 20 60 0,0
25.11.2020 10:00:00 8,8 5,9 6,7 9,0 12,5 10 5 15 8 SSE 1016,2 16 60 0,0
25.11.2020 09:00:00 6,6 4,8 3,6 9,0 12,5 11 6 15 8 S 1015,9 15 19 0,0
25.11.2020 08:00:00 6,3 4,1 4,1 8,9 12,5 8 4 20 11 SSE 1015,8 17 0 0,0
25.11.2020 07:00:00 7,8 4,7 6,4 9,0 12,6 14 7 29 16 S 1015,5 33 0 0,0
25.11.2020 06:00:00 8,9 5,1 7,7 8,9 12,5 20 11 34 18 S 1015,5 38 0 0,0
25.11.2020 05:00:00 9,2 5,2 8,1 8,9 12,5 18 10 30 16 S 1015,5 39 0 0,0
25.11.2020 04:00:00 9,7 5,5 9,3 8,9 12,6 16 9 31 17 S 1015,6 20 0 0,0
25.11.2020 03:00:00 9,9 5,7 9,4 8,9 12,6 19 10 37 20 S 1015,7 20 0 0,0
25.11.2020 02:00:00 9,9 5,9 9,0 8,9 12,6 24 13 38 20 S 1015,6 19 0 0,0
25.11.2020 01:00:00 9,8 5,8 8,9 8,9 12,6 26 14 41 22 S 1015,8 19 0 0,0
25.11.2020 00:00:00 9,3 5,1 8,3 8,9 12,6 22 12 35 19 S 1016,1 20 0 0,0
24.11.2020 23:00:00 8,7 4,1 6,9 8,9 12,6 16 8 29 16 S 1016,2 36 0 0,0
24.11.2020 22:00:00 8,6 3,8 6,9 8,9 12,6 18 10 32 17 S 1016,5 39 0 0,0
24.11.2020 21:00:00 8,8 4,2 5,5 8,9 12,7 16 9 25 14 S 1016,6 41 0 0,0
24.11.2020 20:00:00 8,1 4,5 4,6 8,9 12,7 11 6 16 8 SSE 1016,7 20 0 0,0
24.11.2020 19:00:00 8,4 5,3 3,9 8,8 12,7 8 4 12 7 S 1017,0 19 0 0,0
24.11.2020 18:00:00 10,4 5,4 6,4 8,7 12,7 8 5 11 6 SE 1016,9 19 0 0,0
24.11.2020 17:00:00 12,2 5,6 9,8 8,7 12,7 8 4 16 8 SE 1016,9 54 34 0,0
24.11.2020 16:00:00 13,0 5,9 13,5 8,6 12,7 10 6 18 10 SSE 1017,5 52 47 0,0
24.11.2020 15:00:00 13,3 5,9 13,5 8,5 12,7 11 6 18 10 S 1018,2 19 31 0,0
24.11.2020 14:00:00 11,8 5,2 13,3 8,4 12,7 6 3 14 8 SSE 1019,2 20 39 0,0
24.11.2020 13:00:00 10,9 4,4 12,6 8,3 12,7 5 3 11 6 SSE 1019,9 19 36 0,0
24.11.2020 12:00:00 8,9 3,9 9,6 8,4 12,7 8 4 14 7 S 1021,4 18 60 0,0
24.11.2020 11:00:00 5,7 2,5 6,5 8,5 12,8 5 3 10 6 SSE 1022,5 16 36 0,0
24.11.2020 10:00:00 4,0 3,0 0,2 8,5 12,7 3 2 6 3 SSE 1022,6 11 56 0,2
24.11.2020 09:00:00 1,0 0,4 -1,7 8,6 12,8 3 2 6 4 SE 1023,1 7 6 0,0
24.11.2020 08:00:00 0,2 -0,8 -1,6 8,6 12,8 3 1 5 3 ESE 1023,4 4,1 0 0,0
24.11.2020 07:00:00 1,4 0,2 -1,2 8,7 12,8 3 2 8 5 ESE 1023,6 7 0 0,0
24.11.2020 06:00:00 2,1 1,2 -1,1 8,7 12,8 5 3 11 6 E 1024,1 7 0 0,0
24.11.2020 05:00:00 2,4 1,8 -1,3 8,8 12,8 7 4 11 6 ESE 1024,3 8 0 0,0
24.11.2020 04:00:00 1,3 0,7 -1,7 8,8 12,8 5 3 7 4 ESE 1025,2 3,1 0 0,0
24.11.2020 03:00:00 1,0 0,0 -1,7 9,0 12,8 2 1 5 3 NNW 1026,0 3,8 0 0,0
24.11.2020 02:00:00 2,1 0,9 -0,4 9,0 12,8 5 3 9 5 NE 1026,6 6 0 0,0
24.11.2020 01:00:00 3,4 3,0 -1,2 9,0 12,8 5 3 8 4 E 1027,3 8 0 0,0
24.11.2020 00:00:00 1,7 -0,6 -0,9 9,1 12,8 4 2 6 4 E 1028,2 9 0 0,0
23.11.2020 23:00:00 3,5 1,9 0,2 9,2 12,9 4 2 6 3 NE 1028,8 8 0 0,0
23.11.2020 22:00:00 3,5 1,2 -0,3 9,2 12,9 3 1 5 3 N 1029,2 8 0 0,0
23.11.2020 21:00:00 5,0 1,5 1,0 9,2 12,9 3 2 6 4 NNE 1029,1 16 0 0,0
23.11.2020 20:00:00 6,7 1,6 3,4 9,2 12,9 5 3 8 4 ENE 1029,0 15 0 0,0
23.11.2020 19:00:00 7,8 1,8 5,2 9,2 12,9 5 3 8 5 E 1029,0 14 0 0,0
23.11.2020 18:00:00 8,6 1,9 6,1 9,1 12,9 5 3 11 6 E 1029,0 20 0 0,0
23.11.2020 17:00:00 10,1 2,2 8,4 9,0 12,9 7 4 14 7 ENE 1028,9 52 51 0,0
23.11.2020 16:00:00 11,5 3,0 14,7 8,9 12,9 8 4 15 8 E 1028,7 20 60 0,0
23.11.2020 15:00:00 11,7 3,7 16,2 8,8 13,0 6 4 15 8 NNE 1028,9 55 60 0,0
23.11.2020 14:00:00 11,4 4,1 16,1 8,8 13,0 6 3 15 8 ENE 1029,5 20 60 0,0
23.11.2020 13:00:00 10,4 3,9 16,3 8,7 13,0 8 4 16 9 NE 1029,9 17 60 0,0
23.11.2020 12:00:00 9,0 2,8 13,5 8,7 13,0 6 3 14 8 ENE 1030,8 18 60 0,0
23.11.2020 11:00:00 7,2 2,3 8,1 8,8 13,0 7 4 11 6 NE 1030,9 18 60 0,0
23.11.2020 10:00:00 4,5 2,5 0,5 8,8 13,0 5 3 8 4 N 1030,9 10 48 0,0
23.11.2020 09:00:00 1,6 0,7 -0,4 8,8 13,0 4 2 6 4 NNW 1030,8 9 6 0,0
23.11.2020 08:00:00 1,3 0,1 -0,6 8,9 13,0 2 1 9 5 WSW 1030,3 7 0 0,0
23.11.2020 07:00:00 1,6 0,3 -2,1 8,9 13,0 6 3 8 5 NW 1029,9 7 0 0,0
23.11.2020 06:00:00 2,2 0,9 0,4 9,0 13,1 5 3 9 5 NW 1029,6 9 0 0,0
23.11.2020 05:00:00 2,3 1,0 0,6 9,0 13,1 4 2 8 4 NW 1029,5 9 0 0,0
23.11.2020 04:00:00 2,4 0,9 1,1 9,1 13,1 4 2 6 4 NNW 1029,5 10 0 0,0
23.11.2020 03:00:00 2,5 0,9 0,7 9,1 13,1 0 0 7 4 N 1029,7 9 0 0,0
23.11.2020 02:00:00 2,3 0,7 0,4 9,2 13,1 2 1 8 5 W 1029,7 13 0 0,0
23.11.2020 01:00:00 1,7 0,4 -0,7 9,2 13,1 0 0 4 2 N 1029,8 13 0 0,0
23.11.2020 00:00:00 2,8 0,8 -0,1 9,3 13,1 3 2 8 5 W 1029,6 9 0 0,0
22.11.2020 23:00:00 3,0 1,0 0,3 9,4 13,2 8 4 11 6 NW 1030,0 6 0 0,0
22.11.2020 22:00:00 3,7 1,4 0,9 9,4 13,2 7 4 9 5 WNW 1029,7 9 0 0,0
22.11.2020 21:00:00 4,0 1,2 1,1 9,4 13,2 5 3 10 6 NNW 1029,5 12 0 0,0
22.11.2020 20:00:00 5,2 1,3 1,4 9,4 13,2 6 3 10 6 NW 1029,2 9 0 0,0
22.11.2020 19:00:00 6,3 1,4 2,4 9,4 13,2 10 5 14 7 NNW 1029,0 20 0 0,0
22.11.2020 18:00:00 8,2 1,1 3,8 9,3 13,2 5 3 12 6 N 1028,4 20 0 0,0
22.11.2020 17:00:00 10,2 2,1 9,0 9,2 13,2 10 6 14 8 NNW 1028,0 48 52 0,0
22.11.2020 16:00:00 12,3 0,7 16,5 9,1 13,2 4 2 10 5 ENE 1027,2 20 60 0,0
22.11.2020 15:00:00 12,0 1,3 16,7 9,1 13,3 2 1 13 7 ENE 1027,7 20 60 0,0
22.11.2020 14:00:00 10,3 1,4 17,4 9,0 13,2 6 3 13 7 NE 1028,4 20 60 0,0
22.11.2020 13:00:00 8,7 1,4 14,0 8,9 13,3 5 3 11 6 N 1029,3 19 60 0,0
22.11.2020 12:00:00 6,4 1,3 10,1 8,9 13,3 6 3 14 7 N 1030,0 17 60 0,0
22.11.2020 11:00:00 4,5 1,2 5,8 9,0 13,3 9 5 15 8 N 1030,3 12 60 0,2
22.11.2020 10:00:00 2,5 0,9 1,8 9,1 13,3 7 4 11 6 NNE 1030,1 11 60 0,0
22.11.2020 09:00:00 0,1 -0,6 -2,7 9,2 13,3 0 0 10 5 N 1030,5 9 23 0,0
22.11.2020 08:00:00 -0,8 -1,6 -2,9 9,2 13,3 4 2 7 4 NNW 1030,3 9 0 0,0
22.11.2020 07:00:00 -1,0 -2,1 -2,8 9,3 13,3 4 2 9 5 N 1030,0 8 0 0,0
22.11.2020 06:00:00 -0,1 -0,8 -2,8 9,4 13,3 4 2 10 5 N 1029,9 9 0 0,0
22.11.2020 05:00:00 -0,3 -1,3 -4,9 9,5 13,4 6 3 9 5 N 1029,9 10 0 0,0
22.11.2020 04:00:00 -0,2 -1,3 -2,0 9,5 13,3 6 3 10 5 N 1029,7 10 0 0,0
22.11.2020 03:00:00 0,4 -0,7 -1,9 9,6 13,4 6 3 13 7 N 1029,8 10 0 0,0
22.11.2020 02:00:00 0,4 -0,7 -2,0 9,7 13,4 6 3 8 5 N 1030,2 7 0 0,0
22.11.2020 01:00:00 0,9 -0,6 -1,5 9,8 13,4 6 3 9 5 N 1030,5 12 0 0,0
22.11.2020 00:00:00 1,4 -0,4 -1,4 9,8 13,4 5 3 9 5 N 1030,9 9 0 0,0
21.11.2020 23:00:00 2,5 0,6 -0,7 9,9 13,4 7 4 10 6 N 1031,3 14 0 0,0
21.11.2020 22:00:00 2,9 0,9 -1,1 9,9 13,4 7 4 11 6 N 1031,5 14 0 0,0
21.11.2020 21:00:00 3,4 0,1 0,5 9,9 13,4 8 4 14 8 NNE 1031,7 39 0 0,0
21.11.2020 20:00:00 4,6 0,5 1,2 10,0 13,4 9 5 13 7 NE 1031,8 20 0 0,0
21.11.2020 19:00:00 5,0 0,2 1,4 9,9 13,4 3 2 12 6 NNE 1032,0 17 0 0,0
21.11.2020 18:00:00 6,6 0,3 3,1 9,9 13,4 9 5 16 9 NE 1031,7 52 0 0,0
21.11.2020 17:00:00 7,7 0,6 7,5 9,9 13,5 12 6 22 12 NNE 1031,8 60 53 0,0
21.11.2020 16:00:00 9,2 0,1 13,0 9,9 13,5 13 7 19 10 NNE 1031,8 60 60 0,0
21.11.2020 15:00:00 9,5 1,9 14,6 9,7 13,5 11 6 23 12 NNE 1032,2 20 60 0,0
21.11.2020 14:00:00 9,3 0,2 14,7 9,7 13,5 10 5 21 12 NE 1032,6 49 60 0,0
21.11.2020 13:00:00 8,2 0,9 13,4 9,7 13,5 10 5 19 10 ENE 1033,2 52 60 0,0
21.11.2020 12:00:00 5,8 1,3 10,5 9,7 13,5 8 4 14 7 E 1033,9 18 60 0,0
21.11.2020 11:00:00 3,1 1,8 3,5 9,8 13,5 5 3 11 6 E 1034,5 15 60 0,2
21.11.2020 10:00:00 0,5 0,2 -0,5 9,9 13,5 6 3 9 5 N 1035,4 5 34 0,0
21.11.2020 09:00:00 -1,1 -1,4 -3,8 10,0 13,5 4 2 7 4 NNE 1035,4 0,2 4 0,0
21.11.2020 08:00:00 -2,0 -2,4 -3,6 10,1 13,5 5 3 9 5 N 1035,6 0,4 0 0,0
21.11.2020 07:00:00 -1,1 -1,7 -3,4 10,1 13,5 2 1 5 3 N 1035,2 0,3 0 0,0
21.11.2020 06:00:00 -0,7 -1,1 -2,6 10,3 13,6 4 2 8 5 E 1035,5 0,1 0 0,0
21.11.2020 05:00:00 -0,8 -1,2 -3,1 10,4 13,5 4 2 6 3 NNE 1036,0 0,1 0 0,0
21.11.2020 04:00:00 -0,6 -1,2 -3,4 10,5 13,6 4 2 6 3 SE 1035,9 0,7 0 0,0
21.11.2020 03:00:00 -0,4 -1,0 -2,7 10,5 13,6 4 2 8 4 NW 1036,0 0,4 0 0,0
21.11.2020 02:00:00 0,0 -0,7 -2,7 10,7 13,6 2 1 4 2 NNW 1036,2 4,3 0 0,0
21.11.2020 01:00:00 1,0 0,4 -2,3 10,8 13,6 2 1 3 1 SE 1036,2 1,5 0 0,0
21.11.2020 00:00:00 0,9 0,0 -2,4 10,8 13,6 0 0 2 1 N 1036,5 0,1 0 0,0
20.11.2020 23:00:00 2,1 1,2 -1,5 10,9 13,6 3 1 5 3 WNW 1037,0 4,8 0 0,0
20.11.2020 22:00:00 1,6 0,3 -1,2 10,9 13,6 4 2 6 3 S 1036,8 0,6 0 0,0
20.11.2020 21:00:00 3,8 2,8 -0,4 10,9 13,6 4 2 7 4 SE 1037,1 8 0 0,0
20.11.2020 20:00:00 3,8 2,0 1,2 11,0 13,6 5 3 12 7 S 1037,5 11 0 0,0
20.11.2020 19:00:00 5,9 3,9 3,8 11,0 13,6 8 5 18 10 SE 1036,8 14 0 0,0
20.11.2020 18:00:00 6,9 4,6 5,6 10,9 13,6 10 6 18 10 ESE 1036,7 17 0 0,0
20.11.2020 17:00:00 8,5 3,3 6,7 10,8 13,6 6 3 17 9 ENE 1036,5 19 15 0,0
20.11.2020 16:00:00 9,5 3,5 11,6 10,8 13,7 9 5 15 8 ENE 1036,5 19 50 0,0
20.11.2020 15:00:00 9,9 4,1 12,4 10,7 13,6 8 4 15 8 NNE 1036,2 19 45 0,0
20.11.2020 14:00:00 9,0 4,2 12,2 10,7 13,6 9 5 15 8 NNE 1037,0 20 44 0,0
20.11.2020 13:00:00 8,7 4,3 11,8 10,7 13,7 4 2 10 5 N 1037,8 18 37 0,0
20.11.2020 12:00:00 7,9 4,3 9,6 10,7 13,6 5 3 10 6 N 1038,3 19 40 0,0
20.11.2020 11:00:00 6,4 3,5 7,9 10,8 13,6 4 2 13 7 NE 1038,4 17 60 0,0
20.11.2020 10:00:00 4,3 2,8 2,7 10,8 13,7 7 4 11 6 N 1038,5 14 47 0,0
20.11.2020 09:00:00 2,7 1,8 0,4 10,9 13,6 7 4 13 7 NW 1037,8 8 24 0,0
20.11.2020 08:00:00 2,4 1,2 -0,2 11,1 13,7 8 4 10 6 WNW 1037,6 12 0 0,0
20.11.2020 07:00:00 2,5 1,3 0,5 11,1 13,7 8 5 13 7 NW 1037,4 13 0 0,0
20.11.2020 06:00:00 2,9 1,3 0,7 11,3 13,7 8 4 11 6 NW 1037,1 14 0 0,0
20.11.2020 05:00:00 3,3 1,7 1,5 11,3 13,7 6 4 13 7 NW 1037,2 15 0 0,0
20.11.2020 04:00:00 3,6 1,8 1,5 11,4 13,7 8 5 15 8 NW 1037,5 15 0 0,0
20.11.2020 03:00:00 3,5 1,5 1,3 11,5 13,7 9 5 13 7 NW 1037,8 15 0 0,0
20.11.2020 02:00:00 3,8 1,3 1,2 11,6 13,7 8 5 13 7 NW 1038,2 16 0 0,0
20.11.2020 01:00:00 4,1 1,6 2,2 11,7 13,7 10 5 15 8 WNW 1038,2 15 0 0,0
20.11.2020 00:00:00 4,6 2,0 2,0 11,8 13,7 10 5 14 8 WNW 1037,6 15 0 0,0

tt = Température de l'air
td = dewpoint
tt 5cm = Température de l'air 5cm
tt -20cm = Température de l'air -20cm
tt -100cm = Température de l'air -100cm
ff = Vitesse du vent
fx = gusts
dd = Direction du vent
ppp = reduced air pressure
vv = visibility
sd = Ensoleillement
rr = Quantités de précipitations

stations d'obs. à proximité